Regional Weather Roundup
Issued by NWS New Orleans/Baton Rouge, LA

Home | Current Version | Previous Version | Text Only | Print | Product List | Glossary On
Versions: 1 2 3 4 5 6 7 8 9 10 11 12 13 14 15 16 17 18 19 20 21 22 23 24 25 26 27 28 29 30 31 32 33 34 35 36 37 38 39 40 41 42 43 44 45 46 47 48 49 50
000
ASUS44 KLIX 231710
RWRLIX
NEW ORLEANS REGIONAL WEATHER ROUNDUP
NATIONAL WEATHER SERVICE NEW ORLEANS LA
1200 PM CDT THU OCT 23 2014

NOTE: "FAIR" INDICATES FEW OR NO CLOUDS BELOW 12,000 FEET WITH NO
      SIGNIFICANT WEATHER AND/OR OBSTRUCTIONS TO VISIBILITY.
      SKY/WX - SKY CONDITION AND SIGNIFICANT WEATHER.
      TMP - AIR TEMPERATURE.     DP    - DEWPOINT TEMPERATURE.
      RH  - RELATIVE HUMIDITY.   PRES  - PRESSURE.
      HI  - HEAT INDEX.          WCI   - WIND CHILL INDEX.

*  THESE STATIONS ARE NOT NWS OR FAA STATIONS AND ARE NOT UNDER
   NWS QUALITY CONTROL.

LAZ038-040-048-061>063-065>067-069-231800-
SOUTHEAST LOUISIANA

CITY           SKY/WX    TMP DP  RH WIND       PRES   REMARKS
N.O. AUDUBON   NOT AVBL
N.O. INTL ARPT MOSUNNY   71  50  47 NE12      30.11F
N.O. LAKEFRONT SUNNY     70  50  49 NE12      30.11F
N.O. DOWNTOWN*   N/A     72  45  37 N8        30.11F
SLIDELL        SUNNY     71  46  40 NE8       30.11F
BATON ROUGE    SUNNY     71  46  40 NE7       30.12S
BOOTHVILLE     SUNNY     74  60  61 NE12      30.08F
BELLE CHASSE   MOSUNNY   72  51  47 NE9       30.10F
BOGALUSA*        N/A     71  45  39 E5        30.14F
NEW ROADS*       N/A     70  47  44 NE5       30.13F
GONZALES*        N/A     71  48  45 NE6       30.11S
HAMMOND*       SUNNY     72  43  35 CALM      30.12F
HOUMA*         SUNNY     73  55  53 N9        30.10F
PORT FOURCHON* SUNNY     73  59  60 NE14G21   30.11F

$$

MSZ070-080>082-231800-
SOUTHERN MISSISSIPPI

CITY           SKY/WX    TMP DP  RH WIND       PRES   REMARKS
MCCOMB         MOSUNNY   67  44  43 E8        30.13F
GULFPORT       SUNNY     70  44  39 E6        30.11F
BILOXI         SUNNY     71  46  40 NE7       30.11F
PASCAGOULA     SUNNY     70  47  43 VRB3      30.11F
STENNIS ARPT*  SUNNY     72  39  30 NE7       30.12F

$$

COASTAL OBSERVATIONS
LAKE AND NEARSHORE STATIONS

STATION/POSITION TIME  TEMP    WIND        PRES    WAVE
                       AIR SEA DIR/SP/G            HT/PER
                 (UTC) (F)     (DEG/KT/KT) (MB)    (FT/S)
PASCAGOULA       1700   71      90/  9/ 11 1018.9
WAVELAND YACHT   1700   69      60/  7/  8 1018.9
GRAND ISLE       1700   72 73   40/  8/ 11 1019.1
SOUTHWEST PASS   1700   81 81   50/ 12/ 15 1018.3
NEW CANAL        1700   65 70   40/ 10/ 12 1019.9
SHELL BEACH      1700   67 68   30/ 11/ 13 1019.2

OFFSHORE STATIONS

STATION/POSITION TIME  TEMP    WIND        PRES    WAVE
                       AIR SEA DIR/SP/G            HT/PER
                 (UTC) (F)     (DEG/KT/KT) (MB)    (FT/S)
64 S DAUPHIN ISL 1641   72 80   60/ 14/ 17 1018.6    4/ 6

$$




USA.gov is the U.S. government's official web portal to all federal, state and local government web resources and services.